timestamp,surface_pressure_avg,surface_temp_avg,battery_voltage,lat,long
2020-12-05 00:09:01+00:00,271.6881,6.36,12.73,47.84626,-54.09684
2020-12-05 00:19:01+00:00,272.1831,6.36,12.73,47.84626,-54.09684
2020-12-05 00:29:01+00:00,282.8297,6.3,12.73,47.84626,-54.09684
2020-12-05 00:39:01+00:00,291.703,6.3,12.73,47.84626,-54.09684
2020-12-05 00:49:01+00:00,296.4847,6.3,12.73,47.84626,-54.09684
2020-12-05 00:59:01+00:00,296.2364,6.3,12.73,47.84626,-54.09684
2020-12-05 01:09:01+00:00,303.8914,6.3,12.73,47.84626,-54.09684
2020-12-05 01:19:01+00:00,305.4047,6.3,12.73,47.84626,-54.09684
2020-12-05 01:29:01+00:00,305.5197,6.38,12.73,47.84626,-54.09684
2020-12-05 01:39:01+00:00,310.9897,6.43,12.73,47.84626,-54.09684
2020-12-05 01:49:01+00:00,316.9696,6.48,12.73,47.84626,-54.09684
2020-12-05 01:59:01+00:00,310.5047,6.5,12.73,47.84626,-54.09684
2020-12-05 02:09:01+00:00,310.3763,6.48,12.73,47.84626,-54.09684
2020-12-05 02:19:01+00:00,315.183,6.4,12.73,47.84626,-54.09684
2020-12-05 02:29:01+00:00,311.923,6.4,12.73,47.84626,-54.09684
2020-12-05 02:39:01+00:00,301.3647,6.4,12.73,47.84626,-54.09684
2020-12-05 02:49:01+00:00,304.5297,6.4,12.73,47.84626,-54.09684
2020-12-05 02:59:01+00:00,310.4147,6.4,12.73,47.84626,-54.09684
2020-12-05 03:09:01+00:00,307.103,6.34,12.73,47.84626,-54.09684
2020-12-05 03:19:01+00:00,302.3214,6.3,12.65,47.84626,-54.09684
2020-12-05 03:29:01+00:00,303.0697,6.3,12.65,47.84626,-54.09684
2020-12-05 03:39:01+00:00,302.8547,6.3,12.65,47.84626,-54.09684
2020-12-05 03:49:01+00:00,299.7497,6.3,12.65,47.84626,-54.09684
2020-12-05 03:59:01+00:00,299.5779,6.3,12.65,47.84626,-54.09684
2020-12-05 04:09:01+00:00,300.0097,6.3,12.65,47.84626,-54.09684
2020-12-05 04:19:01+00:00,298.4348,6.3,12.65,47.84626,-54.09684
2020-12-05 04:29:01+00:00,299.5313,6.3,12.65,47.84626,-54.09684
2020-12-05 04:39:01+00:00,295.4163,6.31,12.65,47.84626,-54.09684
2020-12-05 04:49:01+00:00,281.3447,6.3,12.65,47.84626,-54.09684
2020-12-05 04:59:01+00:00,274.8281,6.3,12.65,47.84626,-54.09684
2020-12-05 05:09:01+00:00,276.4764,6.33,12.65,47.84626,-54.09684
2020-12-05 05:19:01+00:00,272.3515,6.3,12.65,47.84626,-54.09684
2020-12-05 05:29:01+00:00,259.6581,6.36,12.65,47.84626,-54.09684
2020-12-05 05:39:01+00:00,254.6664,6.4,12.65,47.84626,-54.09684
2020-12-05 05:49:01+00:00,253.7297,6.4,12.65,47.84626,-54.09684
2020-12-05 05:59:01+00:00,245.4314,6.31,12.65,47.84626,-54.09684
2020-12-05 06:09:01+00:00,233.8281,6.3,12.65,47.84626,-54.09684
2020-12-05 06:19:01+00:00,228.1264,6.3,12.65,47.84626,-54.09684
2020-12-05 06:29:01+00:00,227.2231,6.3,12.65,47.84626,-54.09684
2020-12-05 06:39:01+00:00,217.4832,6.3,12.65,47.84626,-54.09684
2020-12-05 06:49:01+00:00,206.4515,6.3,12.65,47.84626,-54.09684
2020-12-05 06:59:01+00:00,202.6148,6.3,12.65,47.84626,-54.09684
2020-12-05 07:09:01+00:00,202.9214,6.33,12.65,47.84626,-54.09684
2020-12-05 07:19:01+00:00,199.4481,6.38,12.65,47.84626,-54.09684
2020-12-05 07:29:01+00:00,193.8748,6.31,12.65,47.84626,-54.09684
2020-12-05 07:39:01+00:00,188.3098,6.3,12.65,47.84626,-54.09684
2020-12-05 07:49:01+00:00,189.5698,6.3,12.65,47.84626,-54.09684
2020-12-05 07:59:01+00:00,193.7998,6.3,12.65,47.84626,-54.09684
2020-12-05 08:09:01+00:00,187.8281,6.35,12.65,47.84626,-54.09684
2020-12-05 08:19:01+00:00,188.0281,6.3,12.65,47.84626,-54.09684
2020-12-05 08:29:01+00:00,194.8248,6.32,12.65,47.84626,-54.09684
2020-12-05 08:39:01+00:00,194.7415,6.36,12.65,47.84626,-54.09684
2020-12-05 08:49:01+00:00,193.3165,6.39,12.65,47.84626,-54.09684
2020-12-05 08:59:01+00:00,198.9864,6.39,12.65,47.84626,-54.09684
2020-12-05 09:09:01+00:00,204.9298,6.38,12.65,47.84626,-54.09684
2020-12-05 09:19:01+00:00,202.6415,6.38,12.65,47.84626,-54.09684
2020-12-05 09:29:01+00:00,203.4881,6.39,12.65,47.84626,-54.09684
2020-12-05 09:39:01+00:00,212.2064,6.39,12.65,47.84626,-54.09684
2020-12-05 09:49:01+00:00,217.9615,6.39,12.65,47.84626,-54.09684
2020-12-05 09:59:01+00:00,216.4365,6.38,12.65,47.84626,-54.09684
2020-12-05 10:09:01+00:00,219.528,6.37,12.65,47.84626,-54.09684
2020-12-05 10:19:01+00:00,229.3348,6.36,12.65,47.84626,-54.09684
2020-12-05 10:29:01+00:00,232.0298,6.37,12.65,47.84626,-54.09684
2020-12-05 10:39:01+00:00,228.0264,6.36,12.65,47.84626,-54.09684
2020-12-05 10:49:01+00:00,234.3014,6.36,12.65,47.84626,-54.09684
2020-12-05 10:59:01+00:00,244.0731,6.35,12.65,47.84626,-54.09684
2020-12-05 11:09:01+00:00,247.5131,6.3,12.65,47.84626,-54.09684
2020-12-05 11:19:01+00:00,247.6498,6.3,12.65,47.84626,-54.09684
2020-12-05 11:29:01+00:00,255.9364,6.3,12.65,47.84626,-54.09684
2020-12-05 11:39:01+00:00,268.1831,6.3,12.65,47.84626,-54.09684
2020-12-05 11:49:01+00:00,271.0364,6.29,12.65,47.84626,-54.09684
2020-12-05 11:59:01+00:00,271.6064,6.3,12.65,47.84626,-54.09684
2020-12-05 12:09:01+00:00,281.2297,6.3,12.65,47.84626,-54.09684
2020-12-05 12:19:01+00:00,292.3632,6.3,12.65,47.84626,-54.09684
2020-12-05 12:29:01+00:00,294.9097,6.3,12.65,47.84626,-54.09684
2020-12-05 12:39:01+00:00,296.2181,6.3,12.65,47.84626,-54.09684
2020-12-05 12:49:01+00:00,309.163,6.3,12.65,47.84626,-54.09684
2020-12-05 12:59:01+00:00,321.9163,6.3,12.65,47.84626,-54.09684
2020-12-05 13:09:01+00:00,320.1313,6.3,12.65,47.84626,-54.09684
2020-12-05 13:19:01+00:00,318.0179,6.3,12.73,47.84626,-54.09684
2020-12-05 13:29:01+00:00,326.9297,6.3,12.73,47.84626,-54.09684
2020-12-05 13:39:01+00:00,329.463,6.3,12.73,47.84626,-54.09684
2020-12-05 13:49:01+00:00,324.203,6.3,12.73,47.84626,-54.09684
2020-12-05 13:59:01+00:00,328.1646,6.3,12.73,47.84626,-54.09684
2020-12-05 14:09:01+00:00,336.5964,6.3,12.73,47.84626,-54.09684
2020-12-05 14:19:01+00:00,337.7263,6.3,12.81,47.84626,-54.09684
2020-12-05 14:29:01+00:00,339.1479,6.3,12.81,47.84626,-54.09684
2020-12-05 14:39:01+00:00,345.4714,6.3,12.81,47.84626,-54.09684
2020-12-05 14:49:01+00:00,349.3412,6.3,12.81,47.84626,-54.09684
2020-12-05 14:59:01+00:00,349.4362,6.3,12.81,47.84626,-54.09684
2020-12-05 15:09:01+00:00,354.6046,6.3,12.81,47.84626,-54.09684
2020-12-05 15:19:01+00:00,359.5279,6.3,12.81,47.84626,-54.09684
2020-12-05 15:29:01+00:00,351.3029,6.29,12.81,47.84626,-54.09684
2020-12-05 15:39:01+00:00,348.8629,6.29,12.81,47.84626,-54.09684
2020-12-05 15:49:01+00:00,347.7646,6.29,12.81,47.84626,-54.09684
2020-12-05 15:59:01+00:00,340.3213,6.27,12.81,47.84626,-54.09684
2020-12-05 16:09:01+00:00,331.4613,6.27,12.81,47.84626,-54.09684
2020-12-05 16:19:01+00:00,328.7214,6.29,12.97,47.84626,-54.09684
2020-12-05 16:29:01+00:00,331.4913,6.27,12.97,47.84626,-54.09684
2020-12-05 16:39:01+00:00,320.5181,6.26,12.97,47.84626,-54.09684
2020-12-05 16:49:01+00:00,314.1914,6.23,12.97,47.84626,-54.09684
2020-12-05 16:59:01+00:00,316.4297,6.23,12.97,47.84626,-54.09684
2020-12-05 17:09:01+00:00,313.8397,6.2,12.97,47.84626,-54.09684
2020-12-05 17:19:01+00:00,298.8196,6.2,12.89,47.84626,-54.09684
2020-12-05 17:29:01+00:00,293.6164,6.25,12.89,47.84626,-54.09684
2020-12-05 17:39:01+00:00,291.8081,6.25,12.89,47.84626,-54.09684
2020-12-05 17:49:01+00:00,277.3597,6.2,12.89,47.84626,-54.09684
2020-12-05 17:59:01+00:00,265.0097,6.2,12.89,47.84626,-54.09684
2020-12-05 18:09:01+00:00,264.6765,6.2,12.89,47.84626,-54.09684
2020-12-05 18:19:01+00:00,260.5231,6.2,12.81,47.84626,-54.09684
2020-12-05 18:29:01+00:00,248.3231,6.18,12.81,47.84626,-54.09684
2020-12-05 18:39:01+00:00,243.6814,6.19,12.81,47.84626,-54.09684
2020-12-05 18:49:01+00:00,241.0064,6.17,12.81,47.84626,-54.09684
2020-12-05 18:59:01+00:00,229.9831,6.19,12.81,47.84626,-54.09684
2020-12-05 19:09:01+00:00,219.8781,6.19,12.81,47.84626,-54.09684
2020-12-05 19:19:01+00:00,216.7831,6.19,12.73,47.84626,-54.09684
2020-12-05 19:29:01+00:00,210.9231,6.2,12.73,47.84626,-54.09684
2020-12-05 19:39:01+00:00,198.5248,6.2,12.73,47.84626,-54.09684
2020-12-05 19:49:01+00:00,195.9081,6.2,12.73,47.84626,-54.09684
2020-12-05 19:59:01+00:00,196.9064,6.2,12.73,47.84626,-54.09684
2020-12-05 20:09:01+00:00,188.1215,6.2,12.73,47.84626,-54.09684
2020-12-05 20:19:01+00:00,184.3882,6.2,12.73,47.84626,-54.09684
2020-12-05 20:29:01+00:00,195.9998,6.2,12.73,47.84626,-54.09684
2020-12-05 20:39:01+00:00,199.4015,6.2,12.73,47.84626,-54.09684
2020-12-05 20:49:01+00:00,196.2032,6.2,12.73,47.84626,-54.09684
2020-12-05 20:59:01+00:00,198.5548,6.2,12.73,47.84626,-54.09684
2020-12-05 21:09:01+00:00,200.4298,6.19,12.73,47.84626,-54.09684
2020-12-05 21:19:01+00:00,204.2531,6.2,12.65,47.84626,-54.09684
2020-12-05 21:29:01+00:00,206.1915,6.2,12.65,47.84626,-54.09684
2020-12-05 21:39:01+00:00,205.5714,6.2,12.65,47.84626,-54.09684
2020-12-05 21:49:01+00:00,207.8131,6.2,12.65,47.84626,-54.09684
2020-12-05 21:59:01+00:00,213.6398,6.2,12.65,47.84626,-54.09684
2020-12-05 22:09:01+00:00,217.1531,6.2,12.65,47.84626,-54.09684
2020-12-05 22:19:01+00:00,217.1798,6.2,12.65,47.84626,-54.09684
2020-12-05 22:29:01+00:00,216.5714,6.2,12.65,47.84626,-54.09684
2020-12-05 22:39:01+00:00,222.1248,6.2,12.65,47.84626,-54.09684
2020-12-05 22:49:01+00:00,230.7464,6.2,12.65,47.84626,-54.09684
2020-12-05 22:59:01+00:00,228.9448,6.2,12.65,47.84626,-54.09684
2020-12-05 23:09:01+00:00,223.2381,6.2,12.65,47.84626,-54.09684
2020-12-05 23:19:01+00:00,229.4498,6.2,12.65,47.84626,-54.09684
2020-12-05 23:29:01+00:00,234.1364,6.2,12.65,47.84626,-54.09684
2020-12-05 23:39:01+00:00,229.6764,6.2,12.65,47.84626,-54.09684
2020-12-05 23:49:01+00:00,231.5548,6.2,12.65,47.84626,-54.09684
2020-12-05 23:59:01+00:00,242.6415,6.2,12.65,47.84626,-54.09684
